2024-173E

Last updated on Fri Oct 25 2024 00:02:04 GMT+0000 (Coordinated Universal Time)

1 61231U 24173E 24298.34429923 .00007434 00000+0 31004-3 0 9999 2 61231 97.3957 10.7732 0011087 164.3174 195.8409 15.23917274 4537
UTC large
Height (km)
Speed (km/s)
/
Latitude / Longitude
Inclination (degrees)
Orbital Period (minutes)
Azimuth
Elevation
Range (km)
Doppler Factor

Next 0 passes for location: London (51.5072 / 0.1276)

Sorry there are no passes over London.